Location: Unspecified
(0.0000°N, 0.0000°E)
Time: 17:39:31
(UTC+00:00)

S-56A Canister/Altair - Visible Passes

Search period start: 23 September 2019 00:00
Search period end: 03 October 2019 00:00
Orbit: 633 x 2499 km, 38.9° (Epoch: 21 September)

Date Brightness Start Highest point End Pass type
(mag) Time Alt. Az. Time Alt. Az. Time Alt. Az.
23 Sep 11.1 04:21:17 10° SSE 04:25:00 13° SE 04:29:12 10° ESE visible
23 Sep 8.0 19:16:05 10° NW 19:23:23 71° SW 19:25:42 35° SSE visible
24 Sep 8.0 18:42:41 10° NW 18:50:44 89° SW 18:55:25 15° SE visible
25 Sep 10.4 05:15:29 10° SSW 05:23:47 42° SE 05:35:36 10° ENE visible
25 Sep 8.2 18:09:17 10° NW 18:18:00 75° NE 18:23:45 10° SE visible
25 Sep 10.1 20:18:39 10° WSW 20:21:27 13° SW 20:22:39 12° SSW visible
26 Sep 10.5 04:43:18 10° SSW 04:50:47 35° SE 05:01:15 10° ENE visible
26 Sep 10.0 19:44:13 10° W 19:48:51 19° SW 19:52:25 11° S visible
27 Sep 10.5 04:11:16 10° S 04:17:51 28° SE 04:26:48 10° E visible
27 Sep 9.9 19:10:07 10° W 19:16:15 26° SW 19:20:53 10° S visible
28 Sep 10.5 03:39:28 10° S 03:45:00 21° SE 03:52:11 10° E visible
28 Sep 9.7 18:36:10 10° WNW 18:43:37 34° SW 18:48:56 10° SSE visible
29 Sep 10.6 03:08:14 11° SSE 03:12:10 16° SE 03:17:15 10° E visible
29 Sep 9.2 05:08:08 10° SW 05:16:17 82° SE 05:28:46 10° NE visible
29 Sep 9.6 18:02:16 10° WNW 18:10:57 44° SW 18:16:52 10° SSE visible
30 Sep 10.8 02:37:57 10° SE 02:39:21 11° SE 02:41:24 10° ESE visible
30 Sep 9.2 04:35:44 10° SW 04:43:17 70° SE 04:54:54 10° NE visible
01 Oct 9.2 04:05:12 20° SSW 04:10:23 58° SE 04:21:00 10° ENE visible
02 Oct 9.3 03:35:00 35° S 03:37:34 46° SE 03:47:03 10° ENE visible
02 Oct 10.7 18:32:20 10° WSW 18:36:22 14° SW 18:39:48 10° SSW visible
